This is the latest recevied weather packets stored in our database for station/object W4TTU-1. If no packets are shown the sender has not sent any weather packets the latest 10 day(s).
| Time | Temp. | Humidity | Pressure | Rain* | Wind** | Luminosity | Snow |
|---|---|---|---|---|---|---|---|
| 1777802480 | 6.11° C | 27% | 847.1 hPa | 0 mm | - | - | - |
| 1777801584 | 6.11° C | 27% | 847.1 hPa | 0 mm | - | - | - |
| 1777800678 | 6.67° C | 27% | 847.1 hPa | 0 mm | - | - | - |
| 1777799778 | 6.67° C | 28% | 847.1 hPa | 0 mm | - | - | - |
| 1777798877 | 7.22° C | 28% | 847.1 hPa | 0 mm | - | - | - |
| 1777797977 | 7.78° C | 28% | 847.1 hPa | 0 mm | - | - | - |
| 1777797076 | 7.78° C | 28% | 847.1 hPa | 0 mm | - | - | - |
| 1777796176 | 8.33° C | 27% | 847.1 hPa | 0 mm | - | - | - |
| 1777795275 | 8.33° C | 28% | 847.1 hPa | 0 mm | - | - | - |
| 1777794377 | 8.89° C | 27% | 847.2 hPa | 0 mm | - | - | - |
| 1777793474 | 9.44° C | 26% | 847.1 hPa | 0 mm | - | - | - |
| 1777792574 | 10° C | 27% | 847.1 hPa | 0 mm | - | - | - |
| 1777791673 | 10.56° C | 26% | 847.1 hPa | 0 mm | - | - | - |
| 1777790773 | 11.11° C | 26% | 846.9 hPa | 0 mm | - | - | - |
| 1777789872 | 11.67° C | 26% | 846.9 hPa | 0 mm | - | - | - |
| 1777788972 | 12.78° C | 26% | 847 hPa | 0 mm | - | - | - |
| 1777787170 | 13.89° C | 25% | 846.7 hPa | 0 mm | - | - | - |
| 1777786270 | 14.44° C | 25% | 846.6 hPa | 0 mm | - | - | - |
| 1777785369 | 15° C | 24% | 846.6 hPa | 0 mm | - | - | - |
| 1777784469 | 16.11° C | 24% | 846.6 hPa | 0 mm | - | - | - |
| 1777783568 | 16.67° C | 24% | 846.5 hPa | 0 mm | - | - | - |
| 1777782668 | 17.22° C | 24% | 846.6 hPa | 0 mm | - | - | - |
| 1777781767 | 18.33° C | 23% | 846.7 hPa | 0 mm | - | - | - |
| 1777780867 | 18.89° C | 22% | 846.6 hPa | 0 mm | - | - | - |
| 1777779966 | 20° C | 23% | 846.3 hPa | 0 mm | - | - | - |
* Rain since midnight (hover to see other rain measurements)
** Current wind speed in m/s (hover to see current wind gust speed)